Location: Harketief
(53.6518°N, 7.3592°E)
Time: 23:11:15
(UTC+00:00)

Daily predictions for brighter satellites

Satellite Brightness Start Highest point End
(mag) Time Altitude Azimuth Time Altitude Azimuth Time Altitude Azimuth
Meteor 1-19 Rocket 4.3 20:23:25 10° S 20:28:59 71° E 20:34:46 10° NNE
STARLINK-1098 3.6 20:25:48 10° W 20:29:57 81° S 20:34:07 10° E
STARLINK-1089 4.3 20:26:14 10° W 20:30:09 42° SSW 20:34:04 10° SE
SL-8 R/B 4.2 20:26:22 10° SW 20:30:49 38° SSE 20:35:17 10° E
Cosmos 1356 4.4 20:29:03 10° NNW 20:32:23 46° W 20:35:42 10° S
STARLINK-1109 3.6 20:28:27 10° W 20:32:36 75° S 20:36:45 10° ESE
CARTOSAT-1 3.9 20:28:52 10° SSE 20:33:05 56° ENE 20:37:20 10° N
Cosmos 2278 Rocket 2.9 20:28:16 10° S 20:33:19 35° ESE 20:38:25 10° NE
STARLINK-1123 3.6 20:30:46 10° W 20:34:56 82° S 20:39:05 10° E
STARLINK-1107 4.3 20:31:12 10° W 20:35:06 40° SSW 20:38:59 10° SE
Meteor 1-12 Rocket 4.3 20:31:18 10° N 20:36:59 71° ENE 20:42:37 10° SSE
STARLINK-1091 3.6 20:33:26 10° W 20:37:34 73° SSW 20:41:43 10° ESE
Meteor 1-18 Rocket 4.3 20:32:57 10° SSW 20:38:33 87° WNW 20:44:15 10° NNE
Lacrosse 5 1.9 20:34:01 10° WNW 20:39:06 85° SSW 20:44:11 10° ESE
STARLINK-1097 3.6 20:35:45 10° W 20:39:55 83° S 20:44:04 10° E
STARLINK-1066 4.4 20:36:13 10° W 20:40:04 38° SSW 20:43:55 10° SE
Cosmos 1437 Rocket 4.2 20:37:20 10° SE 20:40:09 20° E 20:42:59 10° NE
NOSS 2-3 (E) 4.0 20:37:18 10° SSW 20:41:30 47° SE 20:46:32 10° NE
STARLINK-1072 3.6 20:38:25 10° W 20:42:33 71° SSW 20:46:41 10° ESE
Terra 2.3 20:38:50 10° SE 20:43:27 50° ENE 20:48:04 10° N
Cosmos 1844 Rocket 3.3 20:38:07 10° SW 20:43:46 64° NW 20:49:24 10° NNE
STARLINK-1099 3.6 20:40:42 10° W 20:44:51 83° S 20:49:01 10° E
STARLINK-1081 4.5 20:41:12 10° W 20:45:01 36° SSW 20:48:49 10° SE
STARLINK-1228 3.4 20:42:11 10° SW 20:45:21 43° SSE 20:48:33 10° E
STARLINK-1096 3.6 20:43:25 10° W 20:47:33 69° SSW 20:51:41 10° ESE
STARLINK-1234 3.3 20:46:01 10° SW 20:48:58 41° SSE 20:51:56 10° E
IGS 5A 3.9 20:45:13 10° S 20:49:20 62° WSW 20:53:29 10° NNW
Cosmos 1300 Rocket 3.6 20:45:15 10° N 20:49:44 79° ENE 20:54:11 10° SSE
STARLINK-1104 3.6 20:45:42 10° W 20:49:51 84° S 20:54:01 10° E
STARLINK-1271 4.5 20:46:18 10° SSW 20:49:52 28° SE 20:53:28 10° E
STARLINK-1212 3.5 20:47:29 10° SW 20:50:22 35° SSE 20:53:14 10° E
STARLINK-1209 3.2 20:47:43 10° SW 20:50:43 43° SSE 20:53:44 10° E
STARLINK-1105 3.4 20:47:58 10° SW 20:50:50 35° SSE 20:53:42 10° E
Cosmos 1452 Rocket 4.4 20:46:48 10° SSE 20:51:25 32° ESE 20:56:03 10° NE
STARLINK-1247 3.4 20:48:52 10° SW 20:51:45 35° SSE 20:54:38 10° E
Cosmos 2084 Rocket 3.5 20:47:47 10° SW 20:52:06 89° WNW 20:56:31 10° NE
STARLINK-1227 3.4 20:49:19 10° SW 20:52:12 35° SSE 20:55:05 10° E
Crew Dragon 0.5 20:50:21 10° W 20:52:22 38° S 20:54:13 12° ESE
STARLINK-1079 3.6 20:48:22 10° W 20:52:30 67° SSW 20:56:37 10° ESE
Cosmos 1515 4.0 20:48:54 10° SSW 20:52:42 69° WNW 20:56:32 10° N
STARLINK-1226 3.4 20:50:10 10° SW 20:53:04 36° SSE 20:55:58 10° E
Okean 3 3.5 20:49:16 10° S 20:53:32 66° E 20:57:49 10° NNE
STARLINK-1215 3.4 20:51:05 10° SW 20:53:59 36° SSE 20:56:54 10° E
STARLINK-1154 4.4 20:51:11 10° SSW 20:54:49 30° SSE 20:58:28 10° E
STARLINK-1144 3.6 20:50:41 10° W 20:54:50 84° S 20:59:00 10° E
USA 245 4.0 20:52:14 10° S 20:55:37 38° WSW 20:58:25 10° NNW
STARLINK-1217 3.4 20:52:50 10° SW 20:55:45 37° SSE 20:58:40 10° E
STARLINK-1229 3.4 20:53:45 10° SW 20:56:41 37° SSE 20:59:37 10° E
STARLINK-1116 3.7 20:53:21 10° W 20:57:28 65° SSW 21:01:35 10° ESE
STARLINK-1270 3.3 20:54:37 10° SW 20:57:32 38° SSE 21:00:28 10° E
Cosmos 1420 Rocket 4.3 20:53:03 10° S 20:58:02 47° ESE 21:03:00 10° NE
STARLINK-1189 3.3 20:56:26 10° SW 20:59:22 39° SSE 21:02:18 10° E
STARLINK-1197 4.3 20:56:05 10° SSW 20:59:46 32° SSE 21:03:28 10° E
STARLINK-1103 3.6 20:55:39 10° W 20:59:49 84° S 21:03:59 10° E
COSMOS 2406 4.0 20:54:27 10° NW 21:00:00 48° WSW 21:05:30 10° S
STARLINK-1188 3.3 20:57:18 10° SW 21:00:14 39° SSE 21:03:11 10° E
Cosmos 2221 Rocket 3.6 20:55:55 10° S 21:00:25 73° E 21:04:59 10° NNE
STARLINK-1235 3.1 20:57:55 10° SW 21:00:53 44° SSE 21:03:52 10° E
Okean 1-7 4.1 20:56:47 10° SSW 21:00:55 46° WNW 21:05:04 10° N
STARLINK-1187 3.2 20:58:22 10° SW 21:01:19 42° SSE 21:04:16 10° E
NOSS 2-3 (D) 3.8 20:57:03 10° SSW 21:01:22 60° SE 21:06:36 10° NE
STARLINK-1191 3.3 20:59:46 10° SW 21:02:42 40° SSE 21:05:39 10° E
Meteor 1-13 Rocket 4.4 20:57:53 10° S 21:03:21 59° E 21:08:58 10° NNE
STARLINK-1221 3.2 21:00:39 10° SW 21:03:34 40° SSE 21:06:31 10° E
STARLINK-1222 3.2 21:01:31 10° SW 21:04:28 41° SSE 21:07:24 10° E
STARLINK-1198 4.2 21:00:57 10° SSW 21:04:41 33° SSE 21:08:26 10° E
STARLINK-1101 3.6 21:00:38 10° W 21:04:47 84° S 21:08:57 10° E
Cosmos 371 Rocket 3.9 21:00:33 10° S 21:04:59 37° ESE 21:09:28 10° NE
STARLINK-1214 3.2 21:02:26 10° SW 21:05:22 41° SSE 21:08:19 10° E
USA 215 3.3 20:59:45 10° ESE 21:06:20 87° SSW 21:12:55 10° WNW
Resurs 01 Rocket 3.9 21:03:08 10° SW 21:06:32 21° W 21:09:57 10° NW
Meteor 2-4 Rocket 3.6 21:01:23 10° S 21:06:47 87° ESE 21:12:10 10° NNE
Abrixas rocket 2.9 21:04:45 10° SW 21:07:19 27° S 21:09:45 11° ESE
STARLINK-1094 3.7 21:03:19 10° W 21:07:25 61° SSW 21:11:31 10° ESE
SPOT 1/Viking Rocket 4.1 21:03:22 10° S 21:08:27 56° W 21:13:32 10° NNW
Cosmos 1674 Rocket 4.1 21:04:49 11° SSE 21:08:43 42° E 21:12:53 10° NNE
STARLINK-1199 4.2 21:05:53 10° SW 21:09:40 35° SSE 21:13:28 10° E
STARLINK-1102 3.6 21:05:38 10° W 21:09:47 83° S 21:13:57 10° E
USA 229 DEB 3.8 21:05:43 10° SW 21:12:21 81° NW 21:19:25 10° NE
STARLINK-1117 3.7 21:08:18 10° W 21:12:23 59° SSW 21:16:19 11° ESE
USA 229 3.8 21:05:50 10° SW 21:12:27 82° NW 21:19:31 10° NE
Meteor 1-4 Rocket 3.2 21:09:22 10° SSW 21:12:44 52° WNW 21:16:10 10° N
STARLINK-1210 4.1 21:10:46 10° SW 21:14:36 37° SSE 21:18:27 10° E
STARLINK-1111 3.6 21:10:36 10° W 21:14:45 83° S 21:18:55 10° E
Cosmos 1378 Rocket 4.2 21:12:35 13° SSE 21:16:13 39° E 21:20:20 10° NNE
STARLINK-1078 3.8 21:13:16 10° W 21:17:20 56° SSW 21:21:06 12° ESE
SPOT 5 3.3 21:12:31 10° S 21:17:38 70° WSW 21:22:58 10° NNW
Nadezhda 4 Rocket 4.3 21:13:37 11° SSE 21:19:14 49° E 21:25:07 10° NNE
STARLINK-1219 4.0 21:15:42 10° SW 21:19:34 39° SSE 21:23:26 10° E
Cosmos 1624 Rocket 4.4 21:14:24 10° SSW 21:19:44 72° WNW 21:25:06 10° NNE
STARLINK-1073 3.6 21:15:35 10° W 21:19:44 82° S 21:23:54 10° E
Cosmos 1741 Rocket 4.0 21:14:45 10° NNW 21:20:01 88° ENE 21:24:31 14° SSE
OPS 8737 4.1 21:17:00 10° SW 21:20:20 87° NW 21:23:13 10° NE
NOSS 3-1 (C) 3.8 21:14:37 10° WSW 21:20:22 72° NW 21:27:13 10° NE
NOSS 3-1 (A) 3.4 21:15:36 10° SW 21:21:18 89° SE 21:28:06 10° NE
ATLAS CENTAUR R/B 1.7 21:19:43 10° W 21:21:39 37° NNW 21:23:24 10° ENE
Cosmos 2279 Rocket 4.3 21:15:50 10° NNW 21:22:03 67° W 21:28:12 10° S
STARLINK-1108 3.8 21:18:15 10° W 21:22:18 54° SSW 21:25:53 13° SE
ATLAS 3B R/B 4.1 21:17:30 10° NW 21:23:40 37° NNE 21:29:58 10° ENE
STARLINK-1211 4.0 21:20:36 10° SW 21:24:30 41° SSE 21:28:25 10° E
STARLINK-1121 3.5 21:20:32 10° W 21:24:42 82° S 21:28:51 10° E
Okean 2 Rocket 4.0 21:21:20 10° NNW 21:25:34 44° W 21:29:45 10° SSW
STARLINK-1071 3.9 21:23:14 10° W 21:27:16 52° SSW 21:30:40 14° SE
CENTAUR R/B 3.8 21:20:35 10° NW 21:27:52 52° NNE 21:36:08 10° E
STARLINK-1245 3.9 21:25:32 10° SW 21:29:28 43° SSE 21:33:25 10° E
STARLINK-1106 3.5 21:25:31 10° W 21:29:41 81° S 21:33:50 10° E
STARLINK-1110 3.9 21:27:26 10° W 21:31:27 50° SSW 21:34:41 15° SE
NOSS 2-3 (C) 3.9 21:27:40 10° SW 21:32:08 87° NW 21:37:42 10° NE
Cosmos 1850 Rocket 4.2 21:28:45 10° NNW 21:34:06 73° WSW 21:38:31 15° SSE
STARLINK-1233 3.9 21:30:27 10° SW 21:34:25 45° SSE 21:38:24 10° E
STARLINK-1112 3.5 21:30:31 10° W 21:34:40 80° S 21:38:49 10° ESE
ERBS 3.2 21:32:59 10° SSW 21:35:51 27° SE 21:38:44 10° E
STARLINK-1124 4.0 21:33:12 10° W 21:37:12 47° SSW 21:40:13 16° SE
Cosmos 2151 Rocket 4.4 21:34:15 10° NNW 21:38:35 47° W 21:42:53 10° SSW
STARLINK-1204 3.8 21:35:24 10° SW 21:39:23 48° SSE 21:43:23 10° E
STARLINK-1128 3.5 21:35:30 10° W 21:39:39 78° S 21:43:48 10° ESE
Cosmos 2082 Rocket 2.6 21:34:03 10° NW 21:39:40 57° WSW 21:44:18 15° S
Aureole 2 4.3 21:38:13 10° NNW 21:41:48 78° ENE 21:43:49 21° SSE
STARLINK-1122 4.0 21:38:11 10° W 21:42:10 45° SSW 21:45:01 17° SE
Okean 1 Rocket 3.1 21:38:50 10° NNW 21:43:21 82° W 21:46:51 16° S
STARLINK-1238 3.8 21:40:19 10° SW 21:44:19 50° SSE 21:48:21 10° E
SeaSat 1 3.0 21:39:51 10° NE 21:44:31 41° ESE 21:48:18 15° S
STARLINK-1113 3.5 21:40:28 10° W 21:44:37 77° S 21:48:46 10° ESE
ERS-1 Rocket 4.1 21:40:53 10° SSW 21:45:31 37° W 21:50:12 10° NNW
STARLINK-1126 4.1 21:43:07 10° W 21:47:04 43° SSW 21:49:44 18° SE
Cosmos 1833 Rocket 3.9 21:43:09 10° NW 21:48:08 33° WSW 21:52:51 11° SSW
STARLINK-1201 3.7 21:45:17 10° SW 21:49:18 52° SSE 21:53:21 10° E
STARLINK-1119 3.5 21:45:27 10° W 21:49:35 75° SSW 21:53:44 10° ESE
Cosmos 1805 3.3 21:46:52 10° N 21:50:48 76° ENE 21:53:26 20° SSE
SL-4 R/B 2.8 21:48:10 10° WNW 21:50:57 27° WSW 21:52:33 17° SSW
EO 1 Del DPAF 4.1 21:48:05 10° NNE 21:51:36 34° E 21:53:37 20° SSE
STARLINK-1082 4.2 21:48:10 10° W 21:52:05 41° SSW 21:54:35 19° SSE
Aureole 2 Rocket 3.2 21:51:13 22° SE 21:52:23 29° ESE 21:55:07 10° NE
Cosmos 304 Rocket 4.1 21:50:10 16° S 21:53:44 48° ESE 21:58:21 10° NE
NOSS 3-2 (A) 4.1 21:47:04 10° NW 21:54:14 76° NE 22:02:28 10° SE
STARLINK-1206 3.7 21:50:13 10° SW 21:54:16 54° SSE 21:58:20 10° E
STARLINK-1114 3.5 21:50:26 10° W 21:54:35 74° SSW 21:58:43 10° ESE
Cosmos 1455 Rocket 3.7 21:51:58 10° N 21:56:12 46° ENE 21:59:07 18° SE
Okean 2 4.2 21:53:51 19° SSE 21:56:16 38° E 22:00:08 10° NNE
STARLINK-1100 4.2 21:53:09 10° W 21:57:02 39° SSW 21:59:21 20° SSE
Cosmos 1092 Rocket 4.2 21:52:19 16° SSE 21:57:09 59° E 22:03:11 10° NNE
Cosmos 332 Rocket 3.8 21:52:44 10° SSW 21:57:36 74° ESE 22:02:31 10° NNE
STARLINK-1205 3.6 21:55:10 10° WSW 21:59:13 57° SSE 22:03:18 10° E
STARLINK-1130 (DARKSAT) 3.5 21:55:24 10° W 21:59:32 72° SSW 22:03:40 10° ESE
Cosmos 2369 Rocket 3.8 21:57:13 14° SE 21:59:48 18° E 22:03:33 10° ENE
ISS -2.7 21:57:20 10° W 22:00:18 28° SSW 22:01:21 23° S
USA 238 DEB 3.9 21:54:27 10° NW 22:01:37 79° NE 22:08:58 10° SE
USA 238 4.0 21:54:33 10° NW 22:01:42 79° NE 22:09:06 10° SE
STARLINK-1083 4.3 21:58:08 10° W 22:01:59 37° SSW 22:04:07 21° SSE
STARLINK-67 1.5 22:00:27 10° W 22:02:24 63° S 22:02:31 61° SSE
Cosmos 1066 Rocket 4.1 21:58:18 13° S 22:03:17 89° ESE 22:08:41 10° NNE
STARLINK-1218 3.6 22:00:07 10° WSW 22:04:11 59° SSE 22:08:16 10° E
STARLINK-1084 3.5 22:00:22 10° W 22:04:31 70° SSW 22:08:38 10° ESE
Cosmos 1378 3.1 22:02:29 21° S 22:04:51 66° E 22:08:34 10° NNE
STARLINK-1202 4.5 22:04:21 16° SSW 22:06:52 28° SE 22:10:25 10° E
STARLINK-1125 4.4 22:03:08 10° W 22:06:56 35° SSW 22:08:54 22° SSE
Cosmos 1842 4.1 22:05:25 21° SE 22:07:27 36° E 22:11:04 10° NNE
OPS 6432 4.3 22:05:38 10° NW 22:08:38 77° NE 22:11:02 19° SE
STARLINK-1254 3.6 22:05:04 10° WSW 22:09:09 61° SSE 22:13:16 10° E
STARLINK-1098 3.5 22:05:22 10° W 22:09:30 68° SSW 22:13:31 11° ESE
Cosmos 1943 Rocket 3.2 22:07:35 18° SSE 22:10:27 28° ESE 22:15:08 10° NE
Cosmos 1331 Rocket 4.3 22:07:06 18° S 22:10:40 49° ESE 22:15:40 10° NE
STARLINK-1109 4.4 22:08:07 10° W 22:11:52 33° SSW 22:13:41 23° SSE
SL-8 R/B 4.0 22:08:17 10° WSW 22:12:52 45° S 22:17:28 10° ESE
STARLINK-1231 3.5 22:10:03 10° WSW 22:14:09 63° SSE 22:18:16 10° E
STARLINK-1123 3.6 22:10:20 10° W 22:14:28 66° SSW 22:18:18 12° ESE
Cosmos 1437 Rocket 3.7 22:12:31 10° SW 22:16:09 43° WNW 22:19:48 10° N
STARLINK-1246 4.3 22:13:54 15° SSW 22:16:44 31° SSE 22:20:25 10° E
Cosmos 2278 Rocket 2.9 22:11:38 10° SW 22:17:13 56° NW 22:22:50 10° NNE
STARLINK-1232 3.5 22:15:01 10° WSW 22:19:07 66° SSE 22:23:14 10° E
STARLINK-1097 3.6 22:15:19 10° W 22:19:26 64° SSW 22:23:03 13° ESE
Terra 3.4 22:17:23 10° SSW 22:21:26 27° W 22:25:30 10° NW
Lacrosse 5 3.0 22:17:20 10° WNW 22:21:37 28° SW 22:24:01 19° S
STARLINK-1224 4.3 22:18:40 14° SSW 22:21:40 33° SSE 22:25:25 10° E
STARLINK-1228 2.9 22:18:27 10° W 22:21:49 81° S 22:25:10 10° E
ALOS 2 3.0 22:19:22 20° SE 22:22:16 56° ENE 22:26:35 10° N
STARLINK-1208 3.5 22:19:58 10° WSW 22:24:04 68° SSE 22:28:12 10° E
Thor Agena Rocket 3.6 22:18:44 10° NNE 22:24:05 77° ESE 22:28:06 18° S
STARLINK-1099 3.6 22:20:16 10° W 22:24:22 62° SSW 22:27:50 14° ESE
STARLINK-1234 2.7 22:21:31 10° W 22:24:38 80° S 22:27:46 10° E
STARLINK-1212 2.7 22:22:52 10° W 22:25:59 78° S 22:29:05 10° E
STARLINK-1105 2.7 22:23:21 10° W 22:26:27 78° S 22:29:33 10° E
STARLINK-1209 2.7 22:23:24 10° W 22:26:34 81° S 22:29:43 10° E
STARLINK-1225 4.2 22:23:26 13° SSW 22:26:39 35° SSE 22:30:26 10° E
Spot 4 3.9 22:23:24 21° S 22:26:40 76° WSW 22:31:34 10° NNW
STARLINK-1247 2.7 22:24:15 10° W 22:27:22 78° S 22:30:30 10° E
STARLINK-1227 2.7 22:24:43 10° W 22:27:49 78° S 22:30:55 10° E
STARLINK-1226 2.7 22:25:34 10° W 22:28:41 78° S 22:31:49 10° E
STARLINK-1271 3.5 22:24:56 10° WSW 22:29:04 70° SSE 22:33:12 10° E
STARLINK-1104 3.6 22:25:16 10° W 22:29:21 59° SSW 22:32:37 15° ESE
STARLINK-1215 2.7 22:26:30 10° W 22:29:38 79° S 22:32:45 10° E
STARLINK-1217 2.7 22:28:16 10° W 22:31:24 79° S 22:34:31 10° E
STARLINK-1230 4.1 22:28:12 12° SW 22:31:35 36° SSE 22:35:25 10° E
BREEZE-M DEB (TANK) 3.6 22:20:35 10° WSW 22:31:35 46° S 22:35:03 10° E
Cosmos 1544 Rocket 3.6 22:27:41 10° N 22:32:03 72° ENE 22:34:36 24° SSE
SL-4 R/B 0.4 22:31:54 56° SSE 22:32:16 82° ENE 22:34:29 10° NNW
STARLINK-1229 2.7 22:29:12 10° W 22:32:19 79° S 22:35:27 10° E
NOSS 8 (F) 4.0 22:31:10 20° SW 22:33:06 67° SE 22:36:11 10° NE
STARLINK-1270 2.7 22:30:03 10° W 22:33:11 79° S 22:36:18 10° E
Cosmos 1452 Rocket 4.3 22:28:11 10° SW 22:33:20 52° WNW 22:38:32 10° NNE
STARLINK-1154 3.5 22:29:54 10° WSW 22:34:03 72° SSE 22:38:11 10° E
Cosmos 1726 3.7 22:30:56 10° N 22:34:09 27° ENE 22:36:25 16° ESE
STARLINK-1144 3.7 22:30:15 10° W 22:34:20 57° SSW 22:37:24 17° SE
STARLINK-1189 2.7 22:31:53 10° W 22:35:01 80° S 22:38:09 10° E
STARLINK-1188 2.7 22:32:46 10° W 22:35:53 80° S 22:39:01 10° E
Cosmos 1766 4.1 22:32:17 10° NNW 22:36:04 43° W 22:38:27 20° SSW
STARLINK-1243 4.1 22:32:58 12° SW 22:36:32 38° SSE 22:40:24 10° E
STARLINK-1235 2.7 22:33:28 10° W 22:36:34 81° S 22:39:41 10° E
STARLINK-1187 2.7 22:33:54 10° W 22:36:59 81° S 22:40:06 10° E
SL-27 R/B 2.6 22:34:06 10° NNW 22:37:44 73° ENE 22:39:37 26° SE
STARLINK-1191 2.7 22:35:15 10° W 22:38:22 80° S 22:41:28 10° E
STARLINK-1197 3.5 22:34:52 10° WSW 22:39:01 73° SSE 22:43:09 10° E
STARLINK-1221 2.7 22:36:08 10° W 22:39:14 80° S 22:42:21 10° E
STARLINK-1103 3.7 22:35:14 10° W 22:39:17 55° SSW 22:42:11 18° SE
STARLINK-1222 2.7 22:37:01 10° W 22:40:08 80° S 22:43:14 10° E
STARLINK-1214 2.7 22:37:56 10° W 22:41:02 80° S 22:44:08 10° E
Cosmos 1553 Rocket 4.1 22:34:42 10° N 22:41:07 81° E 22:45:31 21° SSE
Cosmos 1953 3.3 22:37:34 10° N 22:41:21 38° ENE 22:43:45 19° SE
STARLINK-1236 4.0 22:37:45 11° SW 22:41:30 40° SSE 22:45:24 10° E
Abrixas rocket 3.6 22:39:52 10° WSW 22:41:14 20° SW 22:41:14 20° SW
Cosmos 1340 Rocket 4.1 22:39:13 10° N 22:42:52 32° ENE 22:45:33 16° SE
STARLINK-1198 3.5 22:39:49 10° WSW 22:43:57 75° S 22:48:06 10° E
STARLINK-1101 3.7 22:40:12 10° W 22:44:15 53° SSW 22:46:56 20° SE
Cosmos 1461 2.9 22:43:04 20° SSW 22:45:54 63° SE 22:50:16 10° NE
Cosmos 1271 Rocket 3.5 22:46:32 25° SSE 22:48:13 39° E 22:51:53 10° NNE
STARLINK-1199 3.5 22:44:49 10° WSW 22:48:58 77° S 22:53:07 10° E
STARLINK-1102 3.8 22:45:12 10° W 22:49:14 50° SSW 22:51:45 21° SE
Aureole 3 Rocket 3.8 22:44:28 10° NNW 22:49:23 83° W 22:54:04 21° S
USA 215 3.8 22:45:48 20° SSE 22:49:51 40° SW 22:55:58 10° WNW
Cosmos 1758 3.3 22:45:51 10° N 22:49:54 81° E 22:52:04 27° SSE
Cosmos 2026 Rocket 4.1 22:45:53 18° SSW 22:50:42 84° W 22:57:06 10° N
COSMOS 2487 4.4 22:48:02 10° N 22:50:58 24° NE 22:53:49 10° ESE
STARLINK-1269 3.9 22:47:26 10° SW 22:51:23 45° SSE 22:55:22 10° E
STARLINK-1210 3.5 22:49:46 10° WSW 22:53:55 78° S 22:58:04 10° E
STARLINK-1111 3.8 22:50:11 10° W 22:54:11 48° SSW 22:56:31 22° SE
Cosmos 1733 4.4 22:51:52 10° NNW 22:55:22 33° W 22:57:26 19° SW
Cosmos 1707 3.3 22:53:56 26° SSE 22:55:43 44° E 22:59:28 10° NNE
STARLINK-1200 3.8 22:52:23 10° SW 22:56:22 47° SSE 23:00:22 10° E
NOSS 2-2 (D) 3.4 22:57:13 28° SSW 22:58:53 51° SE 23:02:57 10° NE
STARLINK-1219 3.5 22:54:45 10° WSW 22:58:54 79° S 23:03:03 10° E
STARLINK-1073 3.9 22:55:10 10° W 22:59:09 46° SSW 23:01:18 24° SE
NOSS 3-2 (C) 4.0 22:51:53 10° NW 22:59:11 83° SW 23:07:07 12° SE
STARLINK-1192 3.8 22:57:20 10° SW 23:01:20 49° SSE 23:05:21 10° E
YAOGAN 11 4.4 22:58:51 22° SE 23:01:35 63° ENE 23:05:54 10° N
NOSS 8 (H) 4.0 23:00:43 26° SW 23:02:15 77° SE 23:05:25 10° NE
STARLINK-1211 3.5 22:59:42 10° W 23:03:52 80° S 23:08:02 10° E
Cosmos 1975 Rocket 3.6 23:00:54 18° SSW 23:04:01 56° WNW 23:08:24 10° N
STARLINK-1121 3.9 23:00:08 10° W 23:04:05 44° SSW 23:06:04 25° SSE
Cosmos 2292 Rocket 4.4 23:02:08 21° SE 23:04:15 33° E 23:07:32 10° NNE
STARLINK-1244 3.7 23:02:15 10° SW 23:06:17 51° SSE 23:10:19 10° E
STARLINK-1245 3.5 23:04:42 10° W 23:08:52 81° S 23:13:01 10° E
STARLINK-1106 4.0 23:05:08 10° W 23:09:03 42° SSW 23:10:51 26° SSE
Meteor 2-10 3.9 23:05:36 10° NNW 23:10:45 83° ENE 23:13:54 23° SSE
STARLINK-1138 3.7 23:07:12 10° SW 23:11:14 53° SSE 23:15:18 10° E
ERBS 2.4 23:08:37 10° WSW 23:11:56 74° NNW 23:15:16 10° ENE
Aureole 3 3.7 23:08:18 10° N 23:12:11 48° ENE 23:13:55 24° SE
Cosmos 2297 4.1 23:07:37 10° SW 23:13:15 64° NW 23:18:59 10° NNE
Cosmos 1242 Rocket 2.5 23:11:36 29° SSW 23:13:22 83° WNW 23:17:05 10° NNE
STARLINK-1203 3.7 23:09:32 10° WSW 23:13:39 56° SSE 23:17:47 10° E
STARLINK-1233 3.5 23:09:40 10° W 23:13:50 82° S 23:17:59 10° E
STARLINK-1112 4.1 23:10:08 10° W 23:14:01 40° SSW 23:15:38 27° SSE
ATLAS 3B R/B 3.0 23:08:40 10° NW 23:15:24 69° NE 23:22:20 10° ESE
STARLINK-1143 3.6 23:12:09 10° WSW 23:16:13 56° SSE 23:20:17 10° E
NOSS 2-2 (E) 3.2 23:15:11 19° SW 23:17:47 85° SE 23:22:14 10° NE
Cosmos 1470 3.4 23:15:03 10° NNW 23:18:48 44° W 23:20:37 25° SSW
STARLINK-1204 3.5 23:14:39 10° W 23:18:49 83° S 23:22:59 10° E
STARLINK-1128 4.1 23:15:07 10° W 23:18:59 38° SSW 23:20:26 28° SSE
CENTAUR R/B 3.1 23:11:24 10° NW 23:19:14 78° SW 23:27:41 11° SE
SL-16 R/B 4.4 23:14:30 10° ESE 23:19:26 26° NE 23:24:22 10° N
Cosmos 2266 Rocket 4.2 23:16:09 22° SSE 23:20:10 60° E 23:26:08 10° NNE
Cosmos 1674 4.2 23:18:32 18° SE 23:20:16 26° E 23:23:25 10° NNE
STARLINK-1241 3.6 23:17:06 10° WSW 23:21:10 58° SSE 23:25:15 10° E
Cosmos 1503 Rocket 4.0 23:16:00 10° NNW 23:21:18 86° WSW 23:24:51 22° SSE
ATLAS CENTAUR R/B 3.7 23:20:47 11° ESE 23:21:37 11° ESE 23:23:02 10° E
SeaSat 1 3.4 23:17:24 10° NNE 23:22:07 46° NW 23:26:49 10° WSW
Cosmos 2082 Rocket 4.5 23:20:56 10° WNW 23:22:31 11° W 23:24:06 10° WSW
STARLINK-1238 3.5 23:19:36 10° W 23:23:46 83° S 23:27:56 10° E
STARLINK-1113 4.2 23:20:07 10° W 23:23:56 36° SSW 23:25:12 28° S
Aureole 2 Rocket 4.2 23:23:25 10° WSW 23:26:04 24° NW 23:28:38 10° N
STARLINK-1239 3.6 23:22:02 10° WSW 23:26:08 60° SSE 23:30:14 10° E
STARLINK-1201 3.5 23:24:36 10° W 23:28:46 84° S 23:32:56 10° E
STARLINK-1119 4.3 23:25:06 10° W 23:28:52 34° SSW 23:29:59 29° S
BREEZE-M DEB 4.1 23:26:20 10° WSW 23:30:09 59° SSE 23:44:00 10° E
Cosmos 1867 3.6 23:25:32 10° NW 23:31:03 88° NE 23:36:08 12° SE
BREEZE-M DEB (TANK) 3.4 23:27:48 10° W 23:31:06 39° SSW 23:35:37 10° ESE
STARLINK-1240 3.6 23:27:01 10° WSW 23:31:07 63° SSE 23:35:13 10° E
Cosmos 883 Rocket 4.5 23:26:41 10° N 23:32:55 88° E 23:37:08 21° S
STARLINK-1206 3.5 23:29:35 10° W 23:33:44 84° S 23:37:54 10° E
STARLINK-1114 4.4 23:30:07 10° W 23:33:50 32° SSW 23:34:46 29° S
Cosmos 968 Rocket 3.8 23:30:07 10° NNW 23:35:10 53° WSW 23:38:01 24° S
Helios 1A 3.4 23:33:57 26° SSW 23:36:01 50° W 23:40:07 10° NNW
STARLINK-1216 3.5 23:31:58 10° WSW 23:36:05 65° SSE 23:40:12 10° E
Cosmos 1354 Rocket 4.0 23:30:54 10° NNW 23:36:12 75° WSW 23:39:37 22° SSE
Cosmos 2227 Rocket 4.2 23:32:48 10° NNW 23:37:38 27° NE 23:42:27 10° E
Cosmos 1908 3.5 23:34:08 10° N 23:37:56 61° ENE 23:40:02 24° SSE
STARLINK-1205 3.5 23:34:33 10° W 23:38:43 84° S 23:42:53 10° E
Meteor 2-19 Rocket 4.5 23:34:37 22° S 23:38:44 78° E 23:44:53 10° NNE
STARLINK-1130 (DARKSAT) 4.4 23:35:06 10° W 23:38:45 30° SSW 23:39:32 28° S
NOSS 2-2 (C) 3.3 23:37:50 17° SW 23:40:36 79° NW 23:44:59 10° NE
ATLAS 2AS CENTAUR R/B 3.5 23:35:54 21° S 23:41:03 46° ESE 23:48:30 10° NE
STARLINK-1237 3.5 23:36:56 10° WSW 23:41:04 67° SSE 23:45:11 10° E
Cosmos 2369 Rocket 2.2 23:38:58 20° SSW 23:43:03 86° ESE 23:48:44 10° NNE
STARLINK-1218 3.5 23:39:32 10° W 23:43:41 84° S 23:47:51 10° E
STARLINK-1084 4.5 23:40:06 10° W 23:43:42 29° SW 23:44:19 28° SSW
CZ-2D R/B 4.3 23:41:43 10° NE 23:44:27 14° E 23:47:10 10° ESE
STARLINK-1202 3.5 23:41:55 10° WSW 23:46:03 69° SSE 23:50:10 10° E
Cosmos 1726 Rocket 3.9 23:42:35 10° N 23:46:53 61° ENE 23:49:41 21° SSE
Cosmos 2315 Rocket 4.0 23:41:34 10° N 23:47:49 89° W 23:52:12 21° S
Cosmos 1025 Rocket 3.4 23:45:34 22° SW 23:48:07 55° WNW 23:52:21 10° N
STARLINK-1254 3.5 23:44:31 10° W 23:48:40 83° S 23:52:50 10° E
Helios 1B rocket 2.8 23:46:39 10° NNE 23:50:43 52° E 23:52:51 25° SSE
STARLINK-1231 3.5 23:49:31 10° W 23:53:41 83° S 23:57:50 10° E
Cosmos 1943 Rocket 2.5 23:49:04 14° SW 23:53:49 66° NW 23:59:25 10° NNE
Resurs 1-4 Rocket 4.2 23:51:11 10° NE 23:54:39 17° E 23:58:06 10° SE
